Simultaneous Nadir Overpasses (SNOs) Predictions

Prediction of SNOs over PacNW region [( 10.00, 139.50) to ( 22.70, 165.60)] between AQUA and NPP Satellites:

Table of predicted SNOs over PacNW region for the next 30.0 days since TLE Epoch: 5/2/2013
Index Date (AQUA) Time (AQUA) AQUA Lat,Lon Date (NPP) Time (NPP) NPP Lat,Lon Distance(km) Time Diff (sec)
1 05/05/2013 16:00:17 22.59, 147.38 05/05/2013 16:01:23 23.28, 144.43 310.91 66
2 05/13/2013 15:10:33 22.64, 159.81 05/13/2013 15:10:41 23.24, 157.12 283.92 8
3 05/21/2013 15:59:35 22.64, 147.55 05/21/2013 16:01:26 23.32, 144.46 325.05 111
4 05/29/2013 15:09:38 22.60, 160.03 05/29/2013 15:10:44 23.24, 157.14 304.04 66




NCC Satellite Simultaneous Nadir Overpasses (SNOs) Prediction Service
